Location: Antoign�
(47.0844°N, 0.1131°W)
Time: 08:36:08
(UTC+00:00)

Resurs 01 Rocket - Pass Details

Date: 03 March 2021
Orbit: 635 x 643 km, 98.0° (Epoch: 12 April)

Event Time Altitude Azimuth Distance (km) Brightness Sun altitude
Exits shadow 19:12:40 16° 53° (NE) 1,686 3.4 -15.0°
Drops below altitude 10° 19:14:53 10° 23° (NNE) 2,034 4.0 -15.4°
Sets 19:17:50 0° 2° (N) 2,949 5.1 -15.9°
